Location: Caltech
(34.1382°N, 118.1253°W)
Time: 23:39:16
(UTC-07:00)

ALOS - Visible Passes

Search period start: 24 April 2017 00:00
Search period end: 04 May 2017 00:00
Orbit: 684 x 687 km, 97.8° (Epoch: 23 April)

Date Brightness Start Highest point End Pass type
(mag) Time Alt. Az. Time Alt. Az. Time Alt. Az.
25 Apr 3.4 20:20:17 10° S 20:24:44 44° W 20:29:12 10° NNW visible
26 Apr 5.0 20:59:26 10° SW 21:02:28 17° W 21:05:31 10° NW visible
27 Apr 2.4 19:57:43 10° S 20:02:22 81° WSW 20:07:03 10° NNW visible
28 Apr 4.2 20:35:55 10° SSW 20:39:59 30° W 20:44:05 10° NW visible
29 Apr 5.3 21:16:26 10° WSW 21:17:48 11° W 21:19:09 10° WNW visible
30 Apr 3.1 20:13:02 10° S 20:17:34 53° W 20:22:09 10° NNW visible
01 May 4.8 20:51:51 10° SW 20:55:16 20° W 20:58:42 10° NW visible
03 May 3.9 20:28:33 10° SSW 20:32:48 35° W 20:37:04 10° NNW visible
